Regional Weather Roundup
Issued by NWS

Home | Current Version | Previous Version | Graphics & Text | Print | Product List | Glossary On
Versions: 1 2 3 4 5 6 7 8 9 10 11 12 13 14 15 16 17 18 19 20 21 22 23 24 25 26 27 28 29 30 31 32 33 34 35 36 37 38 39 40 41 42 43 44 45 46 47 48 49 50
841
ASUS43 KFSD 052010
RWRSD

WEATHER ROUNDUP FOR SOUTH DAKOTA
NATIONAL WEATHER SERVICE SIOUX FALLS SD
200 PM CST MON DEC 05 2016

NOTE: "FAIR" INDICATES FEW OR NO CLOUDS BELOW 12,000 FEET WITH NO
SIGNIFICANT WEATHER AND/OR OBSTRUCTIONS TO VISIBILITY.


SDZ001>005-009-010-012>017-052100-
NORTHWEST AND NORTH CENTRAL SOUTH DAKOTA

CITY           SKY/WX    TMP DP  RH WIND       PRES   REMARKS
BUFFALO          N/A     24  15  68 NW38G49   29.64R WCI   5
FAITH            N/A     22  21  96 NW29G40   29.65R WCI   4
MOBRIDGE       SNOW      30  25  81 NW23G33   29.55R VSB 1/2 WCI  17
$$

SDZ012>016-024>037-041>051-057-063-072>074-052100-
SOUTHWEST AND SOUTH CENTRAL SOUTH DAKOTA

CITY           SKY/WX    TMP DP  RH WIND       PRES   REMARKS
RAPID CTY ARPT CLOUDY    26  16  65 NW33G44   29.68R WCI   9
PIERRE         MIX PCPN  31  25  78 NW39G48   29.56R WCI  14
CUSTER         CLOUDY    21   4  47 W14G28    29.57R WCI   8
ELLSWORTH AFB  CLOUDY    25  17  70 NW35G46   29.67R WCI   7
PINE RIDGE     LGT SNOW  25  22  88 N14       29.70R VSB 3/4 WCI  13
SPEARFISH      LGT SNOW  19  14  79 NW25G33   29.73R WCI   2
WINNER         CLOUDY    37  29  72 NW28G40   29.57R
$$

SDZ004>011-016>023-039-040-052100-
NORTHEAST SOUTH DAKOTA

CITY           SKY/WX    TMP DP  RH WIND       PRES   REMARKS
ABERDEEN       PTSUNNY   38  29  70 NE3       29.45F
WATERTOWN      CLOUDY    39  31  72 S13       29.43F
BROOKINGS      CLOUDY    42  33  70 S15       29.44F
SISSETON         N/A     35  32  88 SE13      29.46F WCI  26
$$

SDZ017-020-022-023-036>040-048>070-052100-
SOUTHEAST SOUTH DAKOTA

CITY           SKY/WX    TMP DP  RH WIND       PRES   REMARKS
SIOUX FALLS    PTSUNNY   43  33  68 S18       29.50S
HURON          SUNNY     43  31  62 W16       29.46R
CHAMBERLAIN    MOSUNNY   38  32  79 NW31G40   29.53R
MITCHELL       SUNNY     46  32  58 W17       29.48R
YANKTON        CLOUDY    46  30  53 S17       29.51R
$$

ABBREVIATIONS USED IN REMARKS
   TC - TEMPERATURE IN CELSIUS
  WCI - WIND CHILL INDEX
   HX - HEAT INDEX
  VSB - VISIBILITY





USA.gov is the U.S. government's official web portal to all federal, state and local government web resources and services.